Hourly Data Report for October 22, 2013

All times are specified in Local Standard Time (LST). Add 1 hour to adjust for Daylight Saving Time where and when it is observed.

PANGNIRTUNG
NUNAVUT

66°08'36.300" N
65°42'40.500" W
22.60 m
2403049
71826
WXP

Download Data

Hourly Data (October 2013)
Hourly Data Report for October 22, 2013
Temp Definition
°C
Dew Point Temp Definition
°C
Rel Hum Definition
%
Wind Dir Definition
10's deg

Wind Spd Definition
km/h
Visibility Definition
km
Stn Press Definition
kPa
Hmdx Definition


Wind Chill Definition


Weather Definition


TIME
00:00 1.7 -1.6 79 8 6   101.39     LegendNANA
01:00 1.6 -1.8 78 9 11   101.40     LegendNANA
02:00 0.2 -0.2 97 24 13   101.40     LegendNANA
03:00 -0.1 -0.1 100 24 13   101.40   -4 LegendNANA
04:00 -0.2 -0.2 100 24 11   101.37   -4 LegendNANA
05:00 0.0 -0.4 97 24 13   101.36   -4 LegendNANA
06:00 0.0 -0.5 96 23 7   101.35   -2 LegendNANA
07:00 -0.1 -0.4 98 23 9   101.32   -3 LegendNANA
08:00 0.2 -0.4 96 23 9   101.29     LegendNANA
09:00 0.3 -0.3 96 23 7   101.27     LegendNANA
10:00 0.5 -0.2 95 24 6   101.23     LegendNANA
11:00 0.7 -0.9 89 25 2   101.18     LegendNANA
12:00 1.0 -2.4 78 13 2   101.15     LegendNANA
13:00 0.6 -0.6 92 23 4   101.14     LegendNANA
14:00 0.5 -1.0 90 25 4   101.11     LegendNANA
15:00 0.8 -2.8 77 10 9   101.09     LegendNANA
16:00 0.7 -3.1 76 8 11   101.07     LegendNANA
17:00 0.8 -3.3 74 5 7   101.05     LegendNANA
18:00 0.7 -3.4 74 5 11   101.03     LegendNANA
19:00 0.5 -3.7 73 6 11   101.01     LegendNANA
20:00 0.5 -3.9 72 7 9   100.97     LegendNANA
21:00 0.4 -4.2 71 15 7   100.93     LegendNANA
22:00 0.1 -5.0 69 14 15   100.91     LegendNANA
23:00 -0.1 -5.0 70 14 9   100.89   -3 LegendNANA

Notes on Data Quality.

Legend

  • E = Estimated
  • M = Missing
  • NA = Not Available
  • ‡ = Partner data that is not subject to review by the National Climate Archives
Date modified: